When you browse on this site, cookies collect data to enhance your experience and personalize the content and advertising you see.
Visit our Privacy Policy to learn more. By continuing to use the site, you agree to this use of cookies and data.
  • In Österreich
  • Länderverzeichnis
  • Für 7 Tage
  • Wassertemperatur
  • Satellitenkarten
  • Wetterkarte
  • News
  • Widgets
  • user-avatar
    Anmelden

    Stündliche Wetter Kolno

    Heute, 26 Mai, Sonntag

    Zeit Temperatur Niederschläge Wind Luftdruck Luftfeuchtigkeit
    00:00 +14°C° 0 mm 2 m/S 746 mmHg 87%
    01:00 +13°C° 0 mm 2 m/S 746 mmHg 89%
    02:00 +13°C° 0 mm 2 m/S 746 mmHg 92%
    03:00 +13°C° 0 mm 2 m/S 746 mmHg 92%
    04:00 +12°C° 0 mm 2 m/S 746 mmHg 93%
    05:00 +12°C° 0 mm 2 m/S 747 mmHg 94%
    06:00 +13°C° 0 mm 2 m/S 747 mmHg 85%
    07:00 +14°C° 0 mm 3 m/S 747 mmHg 77%
    08:00 +16°C° 0 mm 3 m/S 747 mmHg 69%
    09:00 +17°C° 0 mm 3 m/S 747 mmHg 64%
    10:00 +18°C° 0 mm 4 m/S 747 mmHg 60%
    11:00 +19°C° 0 mm 4 m/S 747 mmHg 56%
    12:00 +19°C° 0 mm 5 m/S 747 mmHg 56%
    13:00 +19°C° 0 mm 5 m/S 747 mmHg 56%
    14:00 +20°C° 0 mm 5 m/S 747 mmHg 56%
    15:00 +20°C° 0 mm 5 m/S 747 mmHg 57%
    16:00 +20°C° 0 mm 5 m/S 747 mmHg 58%
    17:00 +20°C° 0 mm 4 m/S 747 mmHg 59%
    18:00 +18°C° 0 mm 4 m/S 747 mmHg 66%
    19:00 +17°C° 0 mm 3 m/S 747 mmHg 73%
    20:00 +15°C° 0 mm 2 m/S 747 mmHg 80%
    21:00 +14°C° 0 mm 2 m/S 748 mmHg 84%
    22:00 +13°C° 0 mm 2 m/S 748 mmHg 88%
    23:00 +12°C° 0 mm 1 m/S 748 mmHg 91%

    Morgen, 27 Mai, Montag

    Zeit Temperatur Niederschläge Wind Luftdruck Luftfeuchtigkeit
    00:00 +12°C° 0 mm 1 m/S 748 mmHg 92%
    01:00 +11°C° 0 mm 1 m/S 748 mmHg 93%
    02:00 +11°C° 0 mm 1 m/S 749 mmHg 93%
    03:00 +11°C° 0 mm 1 m/S 748 mmHg 93%
    04:00 +12°C° 0 mm 2 m/S 748 mmHg 94%
    05:00 +12°C° 0 mm 2 m/S 748 mmHg 94%
    06:00 +14°C° 0 mm 2 m/S 748 mmHg 86%
    07:00 +17°C° 0 mm 3 m/S 749 mmHg 78%
    08:00 +19°C° 0 mm 3 m/S 749 mmHg 70%
    09:00 +21°C° 0 mm 4 m/S 749 mmHg 63%
    10:00 +23°C° 0 mm 4 m/S 749 mmHg 56%
    11:00 +25°C° 0 mm 4 m/S 749 mmHg 49%
    12:00 +26°C° 0 mm 4 m/S 748 mmHg 47%
    13:00 +27°C° 0 mm 4 m/S 748 mmHg 45%
    14:00 +28°C° 0 mm 5 m/S 748 mmHg 43%
    15:00 +27°C° 0 mm 5 m/S 748 mmHg 47%
    16:00 +27°C° 0 mm 4 m/S 747 mmHg 51%
    17:00 +26°C° 0 mm 4 m/S 747 mmHg 55%
    18:00 +25°C° 0 mm 4 m/S 747 mmHg 63%
    19:00 +22°C° 0 mm 3 m/S 747 mmHg 72%
    20:00 +20°C° 0 mm 2 m/S 747 mmHg 80%
    21:00 +19°C° 0 mm 2 m/S 747 mmHg 83%
    22:00 +18°C° 0 mm 2 m/S 748 mmHg 86%
    23:00 +18°C° 0 mm 2 m/S 748 mmHg 88%

    übermorgen, 28 Mai, Dienstag

    Zeit Temperatur Niederschläge Wind Luftdruck Luftfeuchtigkeit
    00:00 +18°C° 0.2 mm 2 m/S 748 mmHg 90%
    01:00 +18°C° 0.2 mm 2 m/S 748 mmHg 92%
    02:00 +17°C° 0.2 mm 2 m/S 747 mmHg 93%
    03:00 +17°C° 0 mm 2 m/S 747 mmHg 94%
    04:00 +17°C° 0 mm 2 m/S 747 mmHg 94%
    05:00 +17°C° 0 mm 2 m/S 747 mmHg 94%
    06:00 +19°C° 0 mm 3 m/S 747 mmHg 89%
    07:00 +20°C° 0 mm 3 m/S 747 mmHg 85%
    08:00 +21°C° 0 mm 4 m/S 747 mmHg 80%
    09:00 +23°C° 0 mm 4 m/S 746 mmHg 72%
    10:00 +25°C° 0 mm 5 m/S 746 mmHg 64%
    11:00 +27°C° 0 mm 6 m/S 746 mmHg 56%
    12:00 +28°C° 0.2 mm 6 m/S 746 mmHg 55%
    13:00 +28°C° 0.2 mm 6 m/S 746 mmHg 53%
    14:00 +29°C° 0.2 mm 6 m/S 746 mmHg 51%
    15:00 +28°C° 0.1 mm 6 m/S 745 mmHg 52%
    16:00 +28°C° 0.1 mm 6 m/S 745 mmHg 53%
    17:00 +27°C° 0.1 mm 6 m/S 745 mmHg 54%
    18:00 +25°C° 0 mm 5 m/S 745 mmHg 60%
    19:00 +23°C° 0 mm 4 m/S 745 mmHg 67%
    20:00 +21°C° 0 mm 3 m/S 745 mmHg 73%
    21:00 +21°C° 0 mm 4 m/S 745 mmHg 73%
    22:00 +21°C° 0 mm 4 m/S 745 mmHg 72%
    23:00 +21°C° 0 mm 5 m/S 745 mmHg 71%

    29 Mai, Mittwoch

    Zeit Temperatur Niederschläge Wind Luftdruck Luftfeuchtigkeit
    00:00 +20°C° 0 mm 5 m/S 745 mmHg 71%
    01:00 +19°C° 0 mm 4 m/S 745 mmHg 71%
    02:00 +19°C° 0 mm 4 m/S 745 mmHg 71%
    03:00 +18°C° 0 mm 4 m/S 745 mmHg 72%
    04:00 +18°C° 0 mm 4 m/S 745 mmHg 73%
    05:00 +17°C° 0 mm 4 m/S 745 mmHg 74%
    06:00 +17°C° 0 mm 5 m/S 745 mmHg 71%
    07:00 +19°C° 0 mm 5 m/S 745 mmHg 69%
    08:00 +20°C° 0 mm 5 m/S 745 mmHg 67%
    09:00 +22°C° 0.2 mm 5 m/S 745 mmHg 65%
    10:00 +23°C° 0.2 mm 5 m/S 746 mmHg 64%
    11:00 +25°C° 0.2 mm 5 m/S 746 mmHg 62%
    12:00 +26°C° 0.2 mm 5 m/S 746 mmHg 61%
    13:00 +27°C° 0.2 mm 5 m/S 746 mmHg 61%
    14:00 +28°C° 0.2 mm 5 m/S 746 mmHg 60%
    15:00 +26°C° 2.9 mm 4 m/S 745 mmHg 67%
    16:00 +25°C° 2.9 mm 4 m/S 745 mmHg 74%
    17:00 +23°C° 2.9 mm 4 m/S 745 mmHg 81%
    18:00 +22°C° 0.5 mm 3 m/S 746 mmHg 84%
    19:00 +21°C° 0.5 mm 2 m/S 746 mmHg 86%
    20:00 +20°C° 0.5 mm 2 m/S 746 mmHg 89%
    21:00 +20°C° 0 mm 1 m/S 746 mmHg 91%
    22:00 +20°C° 0 mm 1 m/S 746 mmHg 92%
    23:00 +19°C° 0 mm 1 m/S 746 mmHg 93%

    30 Mai, Donnerstag

    Zeit Temperatur Niederschläge Wind Luftdruck Luftfeuchtigkeit
    00:00 +19°C° 0 mm 1 m/S 746 mmHg 93%
    01:00 +19°C° 0 mm 1 m/S 746 mmHg 94%
    02:00 +19°C° 0 mm 1 m/S 746 mmHg 94%
    03:00 +19°C° 0 mm 1 m/S 746 mmHg 94%
    04:00 +19°C° 0 mm 1 m/S 746 mmHg 94%
    05:00 +17°C° 0 mm 0 m/S 746 mmHg 95%
    06:00 +18°C° 0.5 mm 0 m/S 746 mmHg 91%
    07:00 +19°C° 0.5 mm 0 m/S 746 mmHg 88%
    08:00 +20°C° 0.5 mm 0 m/S 747 mmHg 85%
    09:00 +23°C° 1.6 mm 1 m/S 747 mmHg 83%
    10:00 +24°C° 1.6 mm 1 m/S 747 mmHg 81%
    11:00 +24°C° 1.6 mm 2 m/S 747 mmHg 79%
    12:00 +24°C° 1 mm 3 m/S 747 mmHg 81%
    13:00 +22°C° 1 mm 3 m/S 747 mmHg 83%
    14:00 +22°C° 1 mm 4 m/S 748 mmHg 85%
    15:00 +21°C° 0.2 mm 4 m/S 748 mmHg 84%
    16:00 +20°C° 0.2 mm 4 m/S 748 mmHg 83%
    17:00 +20°C° 0.2 mm 3 m/S 749 mmHg 82%
    18:00 +18°C° 0 mm 4 m/S 749 mmHg 83%
    19:00 +17°C° 0 mm 4 m/S 750 mmHg 83%
    20:00 +14°C° 0 mm 4 m/S 750 mmHg 84%
    21:00 +13°C° 0 mm 4 m/S 750 mmHg 83%
    22:00 +12°C° 0 mm 4 m/S 751 mmHg 83%
    23:00 +12°C° 0 mm 4 m/S 751 mmHg 82%

    31 Mai, Freitag

    Zeit Temperatur Niederschläge Wind Luftdruck Luftfeuchtigkeit
    00:00 +11°C° 0 mm 4 m/S 752 mmHg 82%
    01:00 +10°C° 0 mm 3 m/S 752 mmHg 82%
    02:00 +10°C° 0 mm 3 m/S 752 mmHg 82%
    03:00 +9°C° 0 mm 3 m/S 753 mmHg 82%
    04:00 +9°C° 0 mm 3 m/S 753 mmHg 81%
    05:00 +9°C° 0 mm 3 m/S 753 mmHg 80%
    06:00 +10°C° 0 mm 3 m/S 754 mmHg 74%
    07:00 +11°C° 0 mm 4 m/S 754 mmHg 68%
    08:00 +13°C° 0 mm 4 m/S 754 mmHg 63%
    09:00 +14°C° 0 mm 4 m/S 754 mmHg 58%
    10:00 +16°C° 0 mm 5 m/S 755 mmHg 53%
    11:00 +17°C° 0 mm 5 m/S 755 mmHg 48%
    12:00 +19°C° 0 mm 5 m/S 755 mmHg 47%
    13:00 +19°C° 0 mm 5 m/S 755 mmHg 46%
    14:00 +20°C° 0 mm 5 m/S 755 mmHg 45%
    15:00 +20°C° 0 mm 5 m/S 755 mmHg 47%
    16:00 +20°C° 0 mm 4 m/S 755 mmHg 49%
    17:00 +19°C° 0 mm 4 m/S 755 mmHg 52%
    18:00 +18°C° 0 mm 4 m/S 756 mmHg 58%
    19:00 +16°C° 0 mm 3 m/S 756 mmHg 65%
    20:00 +15°C° 0 mm 2 m/S 756 mmHg 71%
    21:00 +14°C° 0 mm 2 m/S 757 mmHg 72%
    22:00 +13°C° 0 mm 2 m/S 757 mmHg 72%
    23:00 +12°C° 0 mm 2 m/S 757 mmHg 73%
    Mehr zeigen